Regional Weather Roundup
Issued by NWS

Home | Current Version | Previous Version | Graphics & Text | Print | Product List | Glossary On
Versions: 1 2 3 4 5 6 7 8 9 10 11 12 13 14 15 16 17 18 19 20 21 22 23 24 25 26 27 28 29 30 31 32 33 34 35 36 37 38 39 40 41 42 43 44 45 46 47 48 49 50
915
ASUS43 KLSX 190307
RWRMO

WEATHER SUMMARY FOR MISSOURI
NATIONAL WEATHER SERVICE SPRINGFIELD MO
1000 PM CDT FRI AUG 18 2017

NOTE: "FAIR" INDICATES FEW OR NO CLOUDS BELOW 12,000 FEET WITH NO
       SIGNIFICANT WEATHER AND/OR OBSTRUCTIONS TO VISIBILITY.
       CURRENT SKY AND/OR WEATHER CONDITIONS ARE NOT AVAILABLE FOR
       CHILLICOTHE AND FARMINGTON.

MOZ001>031-035>038-043-044-053-054-190400-
...NORTHERN AND WESTERN MISSOURI...

CITY           SKY/WX    TMP DP  RH WIND       PRES   REMARKS
KANSAS CTY INT FAIR      73  67  81 SE7       29.93R
KANSAS C DTWN  FAIR      77  69  76 E6        29.92R
LEE`S SUMMIT   FAIR      74  70  87 NE6       29.94R
ST JOSEPH      FAIR      69  67  93 S3        29.92R
CHILLICOTHE      N/A     70  70 100 CALM      29.93R
KIRKSVILLE     FAIR      71  67  87 SW3       29.92R

$$
MOZ066>068-077>081-088>096-101>105-190400-
...SOUTHWEST MISSOURI...

CITY           SKY/WX    TMP DP  RH WIND       PRES   REMARKS
SPRINGFIELD    FAIR      71  67  87 S9        29.98S
JOPLIN         FAIR      73  67  81 S8        29.96S
BRANSON        FAIR      66  64  94 CALM      30.00F

$$
MOZ032>034-039>042-045>050-055>058-069>072-190400-
...CENTRAL MISSOURI...

CITY           SKY/WX    TMP DP  RH WIND       PRES   REMARKS
COLUMBIA       FAIR      73  70  90 S12       29.92F
JEFFERSON CITY LGT RAIN  73  73 100 SE7       29.92F
ROLLA          FAIR      71  66  84 S3        29.99R
SEDALIA        FAIR      77  76  96 SE6       29.95R
WHITEMAN AFB   TSTM      78  78 100 NE30G40   29.94R FOG
WARRENSBURG    MOCLDY    77  68  73 N9G21     29.94R
OSAGE BEACH    TSTM      75  72  90 VRB7      29.99R

$$
MOZ051-052-059>065-190400-
...EAST CENTRAL MISSOURI...

CITY           SKY/WX    TMP DP  RH WIND       PRES   REMARKS
ST LOUIS INTL  FAIR      77  67  71 SW6       29.95S
SPIRIT OF STL  FAIR      71  69  93 CALM      29.94S
ST CHARLES     FAIR      73  67  81 S5        29.92F

$$
MOZ072>076-082>087-097>100-106>115-190400-
...SOUTH CENTRAL AND SOUTHEAST MISSOURI...

CITY           SKY/WX    TMP DP  RH WIND       PRES   REMARKS
CAPE GIRARDEAU FAIR      74  69  85 W3        29.96R
FARMINGTON     MOCLDY    73  68  84 SE3       29.98S
POPLAR BLUFF   FAIR      77  69  76 CALM      29.96R
WEST PLAINS    FAIR      74  68  81 CALM      30.00R

$$



USA.gov is the U.S. government's official web portal to all federal, state and local government web resources and services.